Regional Weather Roundup
Issued by NWS

Home | Current Version | Previous Version | Text Only | Print | Product List | Glossary Off
Versions: 1 2 3 4 5 6 7 8 9 10 11 12 13 14 15 16 17 18 19 20 21 22 23 24 25 26 27 28

000
ASUS45 KTFX 202210
RWRMT
MONTANA REGIONAL WEATHER ROUNDUP
NATIONAL WEATHER SERVICE GREAT FALLS MT
300 PM MST SAT JAN 20 2018

NOTE: "FAIR" INDICATES FEW OR NO CLOUDS BELOW 12000 FEET WITH NO
SIGNIFICANT WEATHER AND/OR OBSTRUCTIONS TO VISIBILITY.

MTZ001>007-043-202300-
WEST OF THE DIVIDE

CITY           SKY/WX    TMP DP  RH WIND       PRES   REMARKS
KALISPELL      CLOUDY    35  29  78 SE14      29.95S WCI  26
MISSOULA       CLOUDY    35  25  66 CALM      29.99R
BUTTE          CLOUDY    24  17  74 CALM      29.91F
MULLAN PASS    LGT SNOW  24  21  88 VRB5      29.88S FOG
ANACONDA         N/A     30  18  59 N3        29.93R
DEER LODGE       N/A     27  21  80 N3        29.96S
EUREKA           N/A     37  27  65 MISG      29.94S
HAMILTON         N/A     37  21  52 S6        29.99R
PLAINS           N/A     43  25  49 CALM      29.98S
RONAN            N/A     36  28  75 S9        29.99R WCI  29
$$

MTZ008-052>055-202300-
SOUTHWEST MONTANA

CITY           SKY/WX    TMP DP  RH WIND       PRES   REMARKS
BOZEMAN        CLOUDY    27  20  75 E3        29.95S
DILLON         CLOUDY    24  14  65 N5        29.92F
ENNIS          SUNNY     28  10  47 CALM      29.96S
THREE FORKS      N/A     33  21  61 S5        29.94S
TWIN BRIDGES     N/A     29  13  51 CALM      29.94F
$$

MTZ009-010-012-014-046-048-049-054-202300-
EAST SLOPES AND CENTRAL MONTANA

CITY           SKY/WX    TMP DP  RH WIND       PRES   REMARKS
CUT BANK       FAIR      38  22  52 W20       29.81R WCI  28
GREAT FALLS    FAIR      39  18  42 W17       29.85R WCI  30
MALMSTROM AFB  FAIR      39  20  45 SW20      29.87R WCI  29
HELENA         CLOUDY    35  22  58 W12       29.93R WCI  27
AUGUSTA        FAIR      35  20  55 W14       29.84R WCI  26
BOWMANS CRNR   FAIR      33  20  58 SW17      29.84R WCI  23
CHOTEAU          N/A     39  19  45 SW13G23   29.85R WCI  32
FAIRFIELD      FAIR      39  19  43 W13       29.83R WCI  32
POWER          FAIR      34  22  60 SW10      29.84R WCI  26
RAYNESFORD     FAIR      37  16  42 SW16      29.87R WCI  28
ULM            FAIR      38  22  52 SW17      29.87R WCI  29
WHITE SULPHUR    N/A     28  14  54 S5        29.88R
$$

MTZ011-013-016-021-045-047-050-051-202300-
NORTH CENTRAL MONTANA

CITY           SKY/WX    TMP DP  RH WIND       PRES   REMARKS
HAVRE          FAIR      34  27  75 SW18      29.85R WCI  23
LEWISTOWN      FAIR      32  21  64 SW10      29.87R WCI  24
N BAR RANCH    FAIR      34  14  44 NW12      29.87R WCI  25
CHINOOK          N/A     28  21  74 E5        29.86R
DENTON         FAIR      36  23  59 MISG      29.84R
GEYSER         FAIR      35  19  51 W16       29.86R WCI  25
GRASS RANGE    FAIR      36  18  48 W13       29.84R WCI  27
STANFORD       PTSUNNY   37  16  43 W10       29.85R WCI  29
WINIFRED       FAIR      36  24  61 W10       29.86R WCI  28
$$

MTZ017>020-022>027-061-062-202300-
NORTHEAST MONTANA

CITY           SKY/WX    TMP DP  RH WIND       PRES   REMARKS
GLASGOW        FAIR      30  20  66 NW6       29.87R WCI  24
GLENDIVE       FAIR      37  24  59 W5        29.90R
JORDAN           N/A     34  24  67 W6        29.88R WCI  29
MALTA          SUNNY     25  19  80 W7        29.88R WCI  17
SIDNEY         FAIR      36  24  62 NW18      29.86R WCI  26
WOLF POINT     FAIR      32  21  64 SW9       29.88R WCI  24
PLENTYWOOD       N/A     34  23  64 CALM      29.83R
POPLAR           N/A     34  19  55 CALM      29.88R
SCOBEY           N/A     31  18  58 SW3       29.83R
$$

MTZ028>42-056>058-202300-
SOUTHCENTRAL AND SOUTHEAST MONTANA

CITY           SKY/WX    TMP DP  RH WIND       PRES   REMARKS
BAKER          FAIR      34  22  61 W13       29.89R WCI  25
BILLINGS       PTSUNNY   36  20  52 W13       29.90S WCI  27
LIVINGSTON     FAIR      29  18  63 W17       29.90S WCI  17
MILES CITY     FAIR      32  24  72 NW5       29.91R
BIG TIMBER     SUNNY     30  19  64 W25       29.90R WCI  16
EKALAKA          N/A     32  20  61 W6        29.88R WCI  26
FORSYTH          N/A     37  21  52 SW8       29.91R WCI  31
HARLOWTON      FAIR      30  19  63 W24       29.87S WCI  17
LAUREL           N/A     37  18  44 W15       29.91S WCI  28
ROUNDUP          N/A     34  17  50 SW10      29.81R WCI  26
$$

REGIONAL REPORTS...DAKOTAS

CITY           SKY/WX    TMP DP  RH WIND       PRES   REMARKS
WILLISTON      FAIR      31  21  66 SW8       29.86R WCI  23
MINOT          FAIR      37  24  59 SW15      29.80R WCI  28
DICKINSON      FAIR      36  24  62 W9        29.86R WCI  29
BEACH          FAIR      32  25  74 W15       29.91R WCI  22
CROSBY         FAIR      32  23  69 W9        29.83R WCI  24
TIOGA          FAIR      30  25  80 W12       29.83R WCI  21
WATFORD CITY   FAIR      36  23  60 W13       29.86R WCI  27
BISMARCK       FAIR      41  27  57 W14       29.88R
GRAND FORKS    FAIR      36  29  75 W9        29.83R WCI  29
FARGO          FAIR      37  31  78 SW6       29.86R
BUFFALO SD       N/A     36  26  67 NW10      29.83S WCI  28
RAPID CITY     CLOUDY    37  29  72 N10       29.90R WCI  30
$$

REGIONAL REPORTS...WYOMING/IDAHO/WASHINGTON

CITY           SKY/WX    TMP DP  RH WIND       PRES   REMARKS
GILLETTE       CLOUDY    31  25  78 CALM      29.89R
SHERIDAN       CLOUDY    32  22  66 W5        29.91R
BUFFALO WY     CLOUDY    29  15  56 N10       29.89R WCI  20
CODY           PTSUNNY   30  21  69 N8        29.87R WCI  22
YELLOWSTONE LA   N/A     19  11  70 CALM      29.84R
IDAHO FALLS    FAIR      34  17  50 VRB5      29.93R
SALMON         CLOUDY    30  21  69 CALM      30.02R
BOISE          FAIR      41  28  60 W13       30.04S
SPOKANE        PTSUNNY   37  32  82 SW13      30.00R WCI  29
$$

REGIONAL REPORTS...ALBERTA

CITY           SKY/WX    TMP DP  RH WIND       PRES   REMARKS
CALGARY        PTSUNNY   39  14  35 W5        29.72R
EDMONTON       CLOUDY    23  21  93 NE5       29.76R
FORT MCMURRAY  FLURRIES  19  16  86 E2        29.80R
HIGH LEVEL     FLURRIES  19  16  86 N5        29.86R
LETHBRIDGE     MOSUNNY   39  25  56 W31G38    29.77R WCI  27
LLOYDMINSTER   CLOUDY    27  23  86 W7        29.77R WCI  19
MEDICINE HAT   MOSUNNY   36  27  69 SW12      29.79R WCI  27
MILK RIVER       N/A     37  25  60 W15         N/A  WCI  28
ONEFOUR          N/A     25  18  74 E2          N/A
PEACE RIVER    FLURRIES  19  18  93 NE5       29.80R
PINCHER CREEK  PTSUNNY   36  23  60 W22G30    29.79S WCI  24
WATERTON GATE    N/A     34  23  64 SW14G21     N/A  WCI  24
$$

REGIONAL REPORTS...SASKATCHEWAN

CITY           SKY/WX    TMP DP  RH WIND       PRES   REMARKS
CORONACH         N/A     30  21  69 W15         N/A  WCI  19
CYPRESS HILLS    N/A     34  16  47 W7          N/A  WCI  28
ESTEVAN        MOSUNNY   34  23  64 W12       29.81R WCI  25
MOOSE JAW        N/A     37  21  52 W10         N/A  WCI  30
PRINCE ALBERT  MOCLDY    21  14  73 S2        29.83R
REGINA         MOSUNNY   34  25  69 NW10      29.79R WCI  26
ROCKGLEN         N/A     27  18  69 SW14        N/A  WCI  15
SASKATOON      MOCLDY    30  25  80 NW8       29.81R WCI  23
SWIFT CURRENT  SUNNY     36  21  55 W8        29.77R WCI  29
VAL MARIE        N/A     28  21  74 SW8         N/A  WCI  20
$$




USA.gov is the U.S. government's official web portal to all federal, state and local government web resources and services.